Simultaneous Nadir Overpasses (SNOs) Predictions

Prediction of SNOs between AQUA and NOAA-19 Satellite Orbit:

Table of predicted SNOs for the next 14.0 days since TLE Epoch: 11/10/2014
Index Date (AQUA) Time (AQUA) Lat,Lon (AQUA) SZA (AQUA ) Date (NOAA-19) Time (NOAA-19) Lat,Lon (NOAA-19) SZA (NOAA-19 ) Distance(km) Time Diff (sec)
1 11/12/2014 04:31:31 78.74, 89.89 96.87 11/12/2014 04:31:19 78.73, 89.87 96.88 0.38 12
2 11/14/2014 09:15:47 78.86, 18.14 97.62 11/14/2014 09:15:03 78.87, 18.03 97.65 2.69 44
3 11/14/2014 10:05:04 -78.49,-172.19 82.85 11/14/2014 10:05:56 -78.49,-172.18 82.86 0.33 52
4 11/16/2014 14:01:38 81.67, -85.23 103.42 11/16/2014 14:00:25 81.06, -85.94 103.14 69.02 73
5 11/16/2014 14:49:21 -78.69, 115.70 82.04 11/16/2014 14:49:42 -78.69, 115.62 82.03 1.85 21
6 11/18/2014 19:33:35 -78.79, 44.08 81.37 11/18/2014 19:33:25 -78.79, 44.06 81.36 0.45 10
7 11/21/2014 00:17:49 -78.92, -27.74 80.68 11/21/2014 00:17:09 -78.93, -27.83 80.66 2.03 40
8 11/21/2014 01:07:08 78.61, 141.68 98.92 11/21/2014 01:07:58 78.61, 141.63 98.92 1.28 50
9 11/23/2014 05:02:01 -79.01, -99.27 80.09 11/23/2014 05:00:51 -79.01, -99.29 80.07 0.34 70




NCC Satellite Simultaneous Nadir Overpasses (SNOs) Prediction Service
